This is the latest recevied weather packets stored in our database for station/object WY7EM. If no packets are shown the sender has not sent any weather packets the latest 10 day(s).
| Time | Temp. | Humidity | Pressure | Rain* | Wind** | Luminosity | Snow |
|---|---|---|---|---|---|---|---|
| 1777573307 | 20.56° C | 20% | 1014.7 hPa | 0 mm | - | 825 W/m² | - |
| 1777573003 | 21.11° C | 20% | 1014.7 hPa | 0 mm | - | 817 W/m² | - |
| 1777572699 | 20.56° C | 19% | 1014.8 hPa | 0 mm | - | 807 W/m² | - |
| 1777572399 | 20.56° C | 20% | 1014.8 hPa | 0 mm | - | 799 W/m² | - |
| 1777572097 | 20.56° C | 20% | 1014.9 hPa | 0 mm | - | 790 W/m² | - |
| 1777571797 | 19.44° C | 21% | 1015.1 hPa | 0 mm | - | 783 W/m² | - |
| 1777571493 | 19.44° C | 21% | 1015.1 hPa | 0 mm | - | 772 W/m² | - |
| 1777571190 | 20.56° C | 21% | 1014.9 hPa | 0 mm | - | 760 W/m² | - |
| 1777570886 | 20.56° C | 20% | 1015.2 hPa | 0 mm | - | 749 W/m² | - |
| 1777570582 | 20° C | 21% | 1015.2 hPa | 0 mm | - | 738 W/m² | - |
| 1777570279 | 19.44° C | 22% | 1015.1 hPa | 0 mm | - | 726 W/m² | - |
| 1777569974 | 19.44° C | 21% | 1015.3 hPa | 0 mm | - | 715 W/m² | - |
| 1777569670 | 19.44° C | 21% | 1015.2 hPa | 0 mm | - | 702 W/m² | - |
| 1777569366 | 19.44° C | 22% | 1015.3 hPa | 0 mm | - | 689 W/m² | - |
| 1777569063 | 19.44° C | 21% | 1015.4 hPa | 0 mm | - | 677 W/m² | - |
| 1777568760 | 19.44° C | 21% | 1015.3 hPa | 0 mm | - | 664 W/m² | - |
| 1777568457 | 19.44° C | 21% | 1015.4 hPa | 0 mm | - | 651 W/m² | - |
| 1777568154 | 19.44° C | 21% | 1015.4 hPa | 0 mm | - | 637 W/m² | - |
| 1777567851 | 19.44° C | 21% | 1015.2 hPa | 0 mm | - | 624 W/m² | - |
| 1777567546 | 18.89° C | 22% | 1015.3 hPa | 0 mm | - | 610 W/m² | - |
| 1777567244 | 18.89° C | 22% | 1015.4 hPa | 0 mm | - | 599 W/m² | - |
| 1777566943 | 18.33° C | 23% | 1015.4 hPa | 0 mm | - | 573 W/m² | - |
| 1777566640 | 18.33° C | 22% | 1015.3 hPa | 0 mm | - | 571 W/m² | - |
| 1777566337 | 18.33° C | 22% | 1015.4 hPa | 0 mm | - | 556 W/m² | - |
| 1777566035 | 17.78° C | 23% | 1015.5 hPa | 0 mm | - | 540 W/m² | - |
* Rain latest hour (hover to see other rain measurements)
** Current wind speed in m/s (hover to see current wind gust speed)